Theta_e
349 351 353 354 356 356 356 358 360 361 361 361 361 361 361 361 361 362 363 364 365 365 365 363 363 362 360 360 360 360 361 361 361 362 363 363 361 361 361 361 362 361 360 360 360 360 360 361 361 362 363 362 361 360 360 358 358 358 358 359 358 358 358
348 349 352 353 355 357 357 359 361 362 362 361 361 361 361 361 361 362 363 363 364 365 366 365 364 362 360 360 360 361 361 360 361 362 362 363 362 361 361 361 362 362 361 360 359 360 361 362 363 362 363 363 362 361 359 358 358 357 358 358 358 358 358
348 348 352 353 355 357 358 358 360 362 361 361 362 361 361 362 362 362 363 364 365 365 365 365 364 362 360 361 361 361 361 361 362 362 362 363 363 361 361 362 362 362 361 361 360 361 361 362 363 363 363 363 361 361 360 358 357 357 357 358 359 358 358
349 349 350 353 356 358 357 357 359 361 361 361 361 361 361 362 362 362 362 363 364 365 365 365 364 363 362 362 362 362 362 361 361 361 362 363 363 362 362 363 362 361 362 361 360 360 361 362 364 364 363 363 362 361 361 359 358 358 357 358 359 358 358
349 349 350 353 355 356 357 356 358 361 360 360 361 361 362 362 362 362 362 362 363 364 364 364 364 364 363 363 362 362 361 361 362 362 362 363 363 363 362 362 363 362 361 361 361 360 361 362 363 364 364 363 362 361 361 361 360 359 358 358 358 358 357
347 349 351 352 353 355 357 356 357 360 360 358 360 361 361 361 361 361 361 362 363 363 364 364 364 364 364 363 362 363 363 363 363 362 363 364 363 364 363 362 362 362 360 360 361 361 361 362 362 363 364 363 361 360 361 362 361 359 359 358 358 358 356
342 350 353 352 352 353 354 355 356 358 359 358 358 360 360 360 360 359 360 361 362 362 362 363 363 363 363 363 363 363 364 364 364 364 364 364 363 363 363 362 362 362 361 361 361 361 362 362 361 361 363 363 362 361 361 362 362 360 360 359 359 358 357
340 349 352 351 351 351 352 354 354 356 358 357 357 358 358 358 358 359 359 360 360 360 361 361 362 362 363 363 363 363 363 364 364 364 364 363 363 363 363 362 362 362 361 361 361 361 361 362 362 361 362 363 362 362 361 362 362 361 360 360 359 359 358
340 348 351 350 348 348 351 353 355 356 357 357 356 357 357 357 357 358 358 358 359 359 359 359 360 362 363 363 363 363 363 363 363 364 364 363 363 362 362 363 362 362 361 361 361 362 361 361 362 362 362 363 363 363 362 363 362 361 361 361 360 360 359
343 348 351 349 345 347 348 349 354 355 355 358 358 357 357 356 356 357 357 357 357 357 358 358 359 361 362 363 363 362 363 363 363 363 363 363 362 362 362 362 362 362 361 361 360 361 362 362 362 363 364 364 363 364 364 364 363 361 361 361 361 360 361
349 353 354 350 346 346 345 347 354 357 358 360 359 356 356 356 356 355 356 356 356 356 357 358 358 359 362 363 362 362 363 363 362 362 362 362 362 361 362 361 361 362 362 361 360 360 362 362 362 363 364 364 364 364 365 365 363 362 361 362 362 361 362
352 353 354 353 350 348 347 349 354 357 360 360 358 357 356 356 356 355 355 355 354 355 356 357 358 359 360 362 362 362 362 362 362 361 362 362 361 360 360 360 360 361 362 361 361 360 361 362 363 363 364 365 365 364 365 365 364 363 362 362 362 362 362
351 351 352 352 352 352 351 352 353 357 360 359 356 356 356 355 355 354 354 355 354 354 355 356 357 358 359 361 362 362 362 362 362 361 361 361 361 360 360 360 359 360 361 362 361 361 360 361 363 363 364 365 365 364 365 365 365 365 364 363 362 362 362
346 349 352 353 355 357 357 355 356 357 358 358 356 355 354 355 354 353 354 354 354 354 354 355 357 357 358 360 361 362 362 361 362 362 361 361 361 361 360 360 360 359 360 361 361 361 360 360 362 363 364 365 365 365 364 365 365 365 365 364 362 362 363
337 341 348 352 357 360 361 360 360 358 357 356 355 353 354 354 354 354 353 354 354 353 354 354 356 357 358 359 361 362 362 361 362 362 362 362 362 362 361 361 360 360 360 361 361 362 361 360 361 363 364 364 365 365 364 364 365 364 364 364 363 362 362
332 332 337 345 353 359 362 363 362 360 359 357 354 353 353 353 353 354 353 354 354 354 353 354 356 357 358 359 361 362 362 362 362 363 363 362 363 363 362 361 361 361 361 361 362 362 361 361 360 362 363 364 365 365 364 364 364 363 361 361 362 362 362
333 331 332 338 346 354 360 361 361 361 360 358 357 354 352 353 354 354 353 353 354 354 354 353 355 358 358 359 360 362 363 364 363 363 364 363 363 363 363 362 362 362 362 362 362 362 362 362 361 361 362 364 364 364 364 364 363 361 359 358 358 360 362
334 336 335 335 341 351 356 357 358 361 359 357 357 355 353 353 354 353 352 352 353 354 354 353 355 357 358 360 361 362 364 365 364 365 365 365 365 364 364 363 362 362 363 363 363 363 363 362 362 362 361 363 364 364 364 364 362 360 359 357 356 356 359
332 333 333 332 338 349 352 349 351 355 355 354 355 353 352 353 353 353 352 352 352 353 353 353 355 357 360 361 361 364 366 365 366 366 366 366 365 365 365 364 363 363 363 363 364 364 364 363 363 363 362 362 363 364 363 364 363 360 358 357 356 354 355
333 335 335 335 335 341 346 348 349 351 352 353 352 350 350 351 351 352 352 352 352 352 353 353 354 358 362 363 363 365 367 366 366 367 367 367 366 366 366 365 364 364 363 363 364 364 365 364 363 363 363 363 363 364 364 364 363 361 358 356 356 354 353
335 335 335 337 341 346 353 356 355 352 352 351 349 349 350 350 350 350 351 351 351 352 353 355 355 357 361 363 363 366 367 366 366 366 367 367 366 366 366 366 365 364 363 363 364 365 365 364 364 364 364 364 364 364 364 364 362 361 360 357 356 354 353
332 334 337 345 353 359 363 363 359 356 355 351 349 348 349 349 349 348 349 350 350 351 353 354 355 357 359 362 364 366 366 367 366 366 366 366 366 366 366 366 366 365 364 363 363 364 365 364 364 364 363 363 363 362 362 363 362 361 360 358 357 355 354
336 343 349 353 357 361 363 363 362 360 358 355 351 348 347 349 349 348 348 349 350 352 352 354 357 358 360 363 364 366 367 366 365 365 366 366 366 366 365 365 365 365 365 364 364 364 365 364 364 363 363 363 362 361 362 363 363 361 359 358 357 356 354
344 349 352 354 357 359 362 363 364 363 362 360 354 350 348 348 347 348 348 348 349 352 353 354 357 360 362 364 365 366 367 365 365 366 366 366 366 366 365 365 365 366 365 365 364 365 365 365 364 364 363 363 362 362 361 363 363 361 359 358 357 356 354
352 352 354 357 359 360 362 365 365 365 364 362 357 351 348 348 348 348 349 349 349 351 353 355 357 361 364 364 365 367 366 365 366 366 366 367 366 366 366 366 366 366 366 365 365 365 365 365 364 364 363 362 362 362 361 362 363 362 360 358 357 356 354
355 355 356 359 360 360 362 364 366 365 362 360 358 353 348 348 348 348 350 350 349 350 353 354 356 360 363 363 364 367 365 365 366 366 366 367 367 367 367 366 366 366 366 365 365 364 364 364 364 364 363 363 362 361 360 361 361 361 360 359 358 356 355
354 356 357 359 360 360 361 363 365 364 361 361 360 355 351 350 349 349 351 353 352 351 352 354 357 362 363 363 365 366 365 365 366 366 366 367 368 367 367 367 366 366 366 366 365 365 365 364 364 364 363 363 361 360 361 360 360 360 360 360 359 357 355
354 356 356 358 358 359 361 363 362 362 360 359 358 355 352 351 351 353 354 355 355 352 350 354 360 364 365 363 364 366 366 366 366 367 366 366 367 367 367 367 366 366 367 366 365 365 365 364 364 362 362 361 361 360 361 360 360 360 360 359 359 358 355
353 353 354 355 356 357 359 362 362 361 361 359 360 359 357 354 355 357 358 358 358 354 352 356 362 365 365 364 364 365 366 367 366 366 365 364 365 367 367 367 366 366 367 367 365 365 364 363 363 362 361 361 361 361 361 362 361 361 359 359 359 358 356
350 350 352 353 353 354 357 360 361 360 359 359 360 363 363 361 360 362 363 365 365 360 359 362 364 364 364 364 364 364 366 367 365 364 363 363 364 365 366 365 365 366 367 366 365 363 363 362 362 362 362 361 361 361 361 362 362 361 360 359 358 358 357
349 350 351 352 352 352 354 357 358 357 357 358 358 360 363 364 365 366 367 366 365 364 362 362 363 364 364 363 364 365 365 365 365 364 364 363 364 365 366 366 367 367 366 366 365 363 363 363 362 362 362 362 362 362 362 362 362 361 361 360 359 358 357
348 349 350 351 351 352 353 354 355 355 355 355 355 357 359 361 362 364 363 362 363 365 364 362 363 363 362 362 364 364 364 365 364 364 364 363 364 365 366 366 367 367 366 366 364 363 363 363 362 362 363 363 362 362 362 361 362 363 362 361 360 358 357
347 348 349 350 351 351 352 352 353 353 353 353 354 356 357 357 358 360 360 360 362 365 366 365 364 363 362 362 362 363 363 364 363 363 363 364 363 364 365 366 366 367 367 366 364 363 364 363 362 362 362 363 362 362 362 363 362 363 363 362 359 357 356
347 347 349 350 350 351 351 351 352 351 351 352 353 354 355 356 356 357 359 360 362 365 367 366 365 364 364 363 363 363 363 363 362 361 362 363 364 364 364 365 364 365 365 365 364 364 363 362 363 362 361 361 361 361 362 362 362 363 364 362 358 354 353
346 347 348 349 349 350 350 351 350 350 351 351 352 352 352 352 353 354 356 358 360 364 366 365 365 365 365 364 364 363 363 364 363 362 362 363 363 363 363 363 364 365 364 364 364 364 364 364 363 362 362 362 362 363 363 363 363 363 362 362 359 354 352
345 347 347 347 347 348 349 349 349 350 350 350 350 349 350 350 350 351 352 353 356 359 361 361 362 362 361 362 362 361 361 362 362 361 361 360 360 361 363 363 363 363 363 364 363 362 362 362 362 362 361 361 361 362 363 363 363 363 363 362 361 358 356
343 345 346 346 346 347 347 348 349 349 349 349 349 349 349 348 349 349 350 350 352 354 357 358 358 358 358 358 358 358 359 360 359 359 359 359 359 360 361 360 361 360 358 358 359 359 359 358 358 358 358 358 359 360 361 362 362 362 362 362 361 360 358
343 344 345 345 345 346 346 347 347 347 347 348 349 348 348 348 349 349 349 348 349 350 352 354 355 356 356 355 355 356 357 358 358 359 359 360 360 360 359 359 360 358 350 344 344 345 344 342 341 341 342 344 345 347 349 352 356 358 360 361 360 360 358
Wind_Speed
15 16 17 16 17 18 19 20 21 23 27 29 30 31 31 31 30 29 29 30 31 31 32 32 32 31 29 29 29 28 27 26 26 25 24 24 23 22 22 21 21 21 21 20 20 20 20 19 19 19 18 19 19 17 16 15 15 15 14 14 13 12 12
15 15 17 17 17 19 20 21 21 24 27 29 30 31 31 31 31 31 30 30 32 32 32 33 33 32 30 30 30 29 29 29 27 25 24 24 24 23 23 22 21 22 22 21 20 20 20 19 19 19 19 19 19 18 17 16 17 16 15 15 14 13 13
15 15 16 17 17 18 20 20 21 25 27 28 30 31 33 33 34 33 32 31 32 32 32 33 34 33 32 32 31 30 30 29 29 27 26 25 25 24 23 21 22 21 21 22 21 20 19 19 20 21 20 20 19 19 18 17 17 17 17 16 15 15 15
15 16 16 18 18 18 18 19 20 24 27 29 31 32 34 35 35 34 33 32 33 33 33 34 34 33 33 33 32 31 30 31 31 30 28 26 24 24 23 22 22 22 22 22 22 21 19 20 20 21 21 20 19 19 19 19 18 18 18 17 17 17 16
16 15 15 16 16 16 17 19 21 25 29 31 33 33 34 35 34 33 33 33 33 35 36 35 33 33 33 33 32 31 31 33 32 30 29 27 24 23 24 24 23 23 23 22 22 22 21 21 21 21 22 22 21 20 20 20 19 18 18 18 18 18 17
14 14 14 14 15 16 18 20 23 27 30 31 32 31 31 32 33 33 33 33 33 33 33 34 33 33 34 34 32 31 32 33 33 31 30 29 26 24 25 25 24 24 24 23 22 23 23 23 22 22 22 22 22 21 21 21 20 19 19 19 19 19 17
13 13 14 15 15 17 19 19 22 26 28 28 28 28 28 30 32 33 32 32 33 33 32 34 34 33 34 34 33 33 33 33 33 33 32 30 28 27 26 26 26 25 24 24 24 24 24 24 24 24 23 23 22 22 22 22 21 20 20 20 20 20 18
11 11 13 14 14 15 16 16 17 21 24 25 26 28 29 29 30 31 32 33 33 33 33 34 35 34 33 33 33 34 34 34 33 33 33 31 29 29 28 27 27 27 26 25 25 25 25 26 26 25 25 24 23 23 23 22 22 21 21 21 21 21 19
8 8 9 10 11 11 11 12 14 17 21 24 26 28 29 29 29 30 32 32 32 33 34 34 34 34 33 33 34 35 35 34 33 33 33 32 31 30 30 28 28 28 28 27 26 26 27 27 26 26 26 25 24 24 24 23 23 22 22 22 23 22 21
5 6 7 8 9 9 9 10 12 15 17 20 24 26 28 29 30 30 31 32 32 33 35 35 34 33 33 33 34 34 34 34 33 33 33 33 32 31 31 30 29 29 29 29 28 27 27 28 27 26 26 26 25 25 24 24 24 23 23 23 23 23 22
3 4 5 7 8 9 11 11 12 14 14 16 21 25 27 28 30 30 31 33 33 33 34 34 33 33 34 34 34 34 34 34 34 34 34 34 33 32 32 31 30 29 30 30 30 28 27 27 28 27 26 26 26 25 25 25 25 25 25 24 24 24 23
2 4 5 7 8 9 11 11 11 13 14 16 21 24 25 27 29 30 30 32 33 32 32 33 33 33 33 33 33 34 35 35 35 35 35 35 33 33 33 33 32 30 30 30 31 30 28 27 27 27 27 26 25 25 25 25 25 26 26 25 24 24 24
2 4 5 6 7 8 9 10 12 14 14 16 21 23 24 26 27 27 28 30 31 31 31 32 33 33 33 33 32 34 35 36 36 36 36 35 34 33 33 34 33 32 31 30 30 31 30 28 27 27 27 26 26 26 26 26 26 26 27 27 25 24 24
3 5 6 6 7 8 10 11 12 13 14 16 20 23 24 26 27 27 28 29 30 30 30 31 32 33 33 32 32 33 35 35 35 35 34 34 34 34 34 33 33 33 31 30 30 30 31 30 29 27 26 26 27 27 26 26 27 27 27 27 26 25 24
7 5 7 7 8 9 10 11 11 12 13 15 18 22 24 25 26 27 28 29 29 30 30 30 31 33 33 32 32 33 33 33 33 32 33 33 33 34 34 33 32 32 31 30 29 29 30 30 29 28 26 27 27 28 27 27 28 28 28 28 27 25 24
10 7 5 5 7 9 9 9 10 11 12 13 15 20 23 23 25 27 29 29 29 30 31 30 31 32 32 32 32 31 31 31 31 31 31 33 33 34 34 33 31 31 31 31 29 28 29 29 29 28 27 27 27 28 28 28 28 30 32 31 28 26 24
11 10 9 7 5 7 6 7 8 10 12 14 16 19 22 23 25 27 28 28 28 30 31 30 30 31 32 33 31 29 29 30 31 30 31 32 33 33 33 33 31 30 30 30 29 28 28 28 29 28 28 27 27 28 28 28 30 33 36 37 34 29 24
13 12 12 12 7 4 5 6 8 10 12 14 16 20 23 23 24 25 27 28 29 29 29 29 30 30 31 31 29 28 29 30 30 29 30 31 32 31 31 31 30 29 29 29 29 29 28 28 29 29 28 27 27 28 29 29 31 35 37 38 39 36 29
15 15 15 14 11 6 5 5 7 9 11 12 15 20 23 24 24 26 27 27 26 25 26 29 30 29 28 28 27 27 28 28 28 29 29 30 30 29 29 30 30 30 29 28 28 28 28 28 28 29 29 29 28 28 29 28 31 36 39 39 40 40 36
15 15 15 14 13 10 6 5 5 7 9 11 14 17 20 24 26 26 25 25 25 25 26 28 29 27 25 26 26 26 27 27 28 28 28 28 28 27 28 30 31 30 28 27 28 28 28 28 28 29 29 30 29 28 28 28 30 35 39 40 40 41 41
13 14 14 13 13 11 6 5 5 6 7 9 12 14 17 22 24 23 23 24 26 28 28 28 28 27 25 26 28 28 27 29 29 27 27 26 27 27 28 28 29 29 29 28 28 28 29 29 29 29 29 29 29 28 28 29 32 35 37 40 40 40 41
14 14 12 10 8 7 5 5 7 7 7 8 10 13 16 18 20 21 22 24 26 27 27 27 27 27 27 27 30 30 30 30 30 28 27 27 27 28 29 29 30 30 30 29 28 28 29 29 30 30 30 31 31 30 30 30 33 37 38 38 39 39 41
12 10 8 7 7 7 7 8 9 9 9 10 12 13 14 15 17 19 21 23 24 25 26 27 27 28 28 28 30 31 30 30 30 29 28 28 29 30 31 31 32 31 30 30 29 28 29 30 30 30 31 33 33 33 33 32 33 37 40 40 39 39 42
7 7 6 6 7 8 8 9 9 10 10 11 12 12 12 13 16 18 19 21 23 24 24 26 27 28 29 28 27 28 28 28 28 28 29 29 30 32 32 32 31 30 29 29 29 29 29 28 29 29 31 33 33 34 34 32 32 36 39 41 40 41 43
4 4 5 6 7 8 8 9 10 11 12 11 11 11 12 13 15 17 19 20 21 22 23 26 28 27 26 24 23 23 25 27 28 29 29 31 32 32 31 30 28 27 27 28 28 28 27 26 27 29 30 30 31 32 32 30 30 33 38 41 41 43 43
4 5 5 5 6 7 8 9 9 10 10 8 7 8 10 13 15 16 17 18 20 21 22 24 23 21 21 21 21 23 26 28 29 30 30 31 31 29 27 27 26 26 27 27 27 26 26 26 26 27 27 27 28 30 31 32 33 33 36 40 42 44 43
5 4 5 5 6 7 7 6 5 6 4 2 2 6 8 11 13 14 14 16 17 19 18 18 17 17 19 21 22 23 27 28 27 28 29 27 25 24 23 24 24 25 25 25 25 25 25 26 25 26 27 27 27 29 31 34 36 36 37 39 43 46 45
6 5 6 6 7 6 6 4 4 4 4 3 0 3 6 9 11 12 13 14 15 17 16 14 15 17 19 22 23 23 24 25 24 24 23 21 21 21 21 22 22 22 23 23 23 24 25 25 25 27 28 27 28 31 32 33 36 38 39 39 41 45 48
6 6 6 6 7 8 7 4 4 5 6 5 4 2 3 7 9 10 11 12 12 14 14 12 13 16 18 20 22 21 21 22 22 21 21 21 22 21 21 22 22 22 22 22 22 24 25 26 27 27 27 28 29 31 32 33 35 38 41 41 41 44 49
4 5 5 5 6 8 7 4 4 7 8 8 7 6 4 4 8 9 8 6 5 8 10 10 10 13 15 17 18 19 18 19 20 21 21 21 22 21 22 22 22 22 22 22 23 24 25 26 27 26 26 27 29 30 31 32 33 36 41 44 45 45 49
3 3 3 4 5 6 6 5 6 7 8 9 10 9 8 7 6 7 6 5 4 4 7 8 9 11 12 14 16 17 17 17 19 20 21 21 21 21 22 22 22 22 22 21 23 25 25 25 26 25 25 26 28 29 30 31 31 34 39 43 47 48 49
1 2 3 4 5 5 5 6 7 8 9 11 10 10 10 10 9 8 6 4 2 3 4 7 9 10 11 12 13 15 16 16 17 19 20 21 21 21 21 21 21 21 21 22 25 25 24 24 25 24 24 25 27 28 29 30 29 31 34 39 44 48 49
2 3 4 5 5 5 5 6 7 8 10 11 11 10 10 10 10 8 5 3 2 1 3 5 7 9 10 11 12 13 14 15 16 16 18 19 19 19 19 19 20 20 20 22 24 23 22 23 23 23 23 25 27 28 28 29 29 29 32 36 41 45 48
3 4 5 6 7 6 6 7 7 8 9 10 10 11 11 11 10 9 7 5 3 2 3 5 6 7 8 9 9 9 11 13 13 13 14 15 17 17 17 17 18 20 21 22 23 22 21 22 24 24 24 25 26 26 26 28 31 32 32 32 35 40 45
4 4 6 7 8 8 7 7 8 9 10 10 10 10 10 11 10 10 9 8 6 5 6 7 6 7 7 7 7 7 7 8 10 10 11 12 13 14 16 16 15 15 15 17 19 19 18 18 19 20 20 21 22 22 22 24 30 33 34 32 31 35 41
4 4 5 6 7 8 9 8 8 9 10 10 10 10 10 10 10 10 10 9 8 8 9 10 10 9 8 7 6 6 5 5 6 7 8 10 11 11 11 12 11 10 10 10 11 12 13 14 15 17 18 20 22 23 23 26 29 31 32 35 38 39 41
5 5 6 7 8 8 8 8 8 9 10 10 10 10 10 10 10 10 10 9 8 7 8 9 9 9 9 8 7 6 6 5 5 5 5 6 8 5 3 4 7 9 11 12 12 13 14 15 18 22 24 27 31 34 36 38 40 38 36 36 40 44 46
7 7 8 9 9 9 9 8 8 9 9 9 9 10 10 10 10 10 10 9 8 7 8 8 7 8 8 8 8 7 7 7 6 5 5 4 4 3 2 3 5 3 2 3 5 7 9 11 13 17 21 25 29 34 39 43 47 50 49 45 43 45 49
Wind_Direction
200 199 200 199 198 199 197 195 192 191 189 189 192 193 194 194 193 192 191 191 191 191 192 192 194 197 199 205 210 212 211 211 212 213 212 212 210 209 209 207 206 206 207 210 213 215 216 215 213 211 210 209 209 209 210 215 221 225 225 224 223 223 223
198 199 199 198 199 200 198 195 193 191 190 190 191 191 192 193 192 192 192 191 191 191 191 191 193 196 199 204 208 210 212 213 213 212 213 213 209 208 210 208 207 207 208 210 212 213 214 212 211 211 210 211 210 207 207 211 217 221 223 222 221 223 224
198 199 198 198 200 199 197 195 194 193 192 191 190 191 192 192 192 192 191 190 191 191 191 192 194 196 198 201 204 207 209 212 214 213 214 214 209 207 209 208 209 209 209 210 211 211 211 209 209 210 210 213 214 211 208 209 212 217 220 219 219 222 223
201 200 199 200 199 197 195 195 196 195 194 193 192 192 191 191 191 191 192 191 190 190 191 193 194 195 196 199 202 204 206 210 214 214 215 215 210 206 207 208 210 211 211 211 211 211 210 208 208 208 210 212 214 213 211 210 210 212 216 216 217 220 223
204 203 200 201 199 197 196 196 197 196 196 196 194 193 192 190 190 191 193 193 193 193 193 193 193 194 196 198 201 204 206 208 211 213 216 217 210 205 206 209 210 210 211 211 211 210 209 208 207 207 209 211 213 214 212 211 210 209 210 213 216 218 221
201 200 201 201 199 198 198 198 198 198 199 198 195 193 192 191 192 193 193 194 195 196 194 194 194 194 195 198 200 202 203 205 208 210 213 214 210 206 208 210 210 211 212 210 209 210 209 209 209 208 208 210 213 214 213 212 211 208 207 209 214 216 218
202 196 199 200 200 201 200 200 200 199 200 200 197 194 193 193 195 195 194 195 196 195 194 195 196 195 196 198 199 199 201 203 205 206 209 211 209 209 210 210 210 211 211 210 208 208 208 209 210 210 209 210 211 211 211 211 210 208 205 206 210 212 215
204 197 201 203 203 204 202 200 201 199 198 199 199 197 196 196 196 196 196 197 197 196 196 197 197 197 196 196 198 200 201 202 203 204 207 209 209 210 210 210 210 210 209 209 209 209 209 210 211 211 209 210 209 208 208 208 209 209 205 205 207 208 210
205 196 202 206 208 209 205 200 200 199 197 198 201 200 198 197 197 198 199 199 197 197 198 198 197 197 196 196 199 200 201 202 203 204 206 208 209 210 210 210 210 209 208 209 210 210 210 212 212 211 209 209 209 206 205 205 206 210 209 206 205 206 208
218 194 190 198 203 203 203 200 196 198 198 198 200 201 199 198 199 199 200 199 199 199 199 198 197 196 195 197 199 200 200 202 203 204 206 207 209 210 210 210 210 209 209 210 211 211 211 212 213 211 209 208 208 205 204 204 204 209 212 209 207 208 208
179 179 181 192 196 194 198 198 194 196 199 198 198 199 200 200 200 201 200 199 200 200 199 197 196 195 196 198 200 200 200 202 203 205 206 207 209 209 210 211 211 210 209 210 212 212 211 211 212 211 209 208 208 206 205 205 205 208 211 212 210 211 211
141 180 194 198 198 195 197 199 197 196 198 198 199 200 200 201 203 203 202 201 201 200 198 196 196 196 196 197 199 200 201 202 203 206 207 207 209 209 210 212 212 211 210 210 211 211 211 211 211 210 210 209 208 207 206 207 207 208 210 212 212 213 214
216 205 202 200 197 195 198 201 202 200 199 199 200 201 202 203 205 205 204 204 203 200 198 196 196 196 197 198 199 200 201 202 203 205 206 207 208 209 210 211 212 212 210 210 210 211 211 211 211 210 210 209 209 209 208 209 209 209 211 213 213 213 215
268 217 193 189 189 192 200 205 206 207 205 204 204 204 204 205 205 205 206 205 204 202 199 197 196 197 198 198 199 200 201 202 202 203 204 205 206 207 209 210 211 210 210 209 209 210 211 211 210 209 208 208 210 210 209 210 211 211 211 213 214 214 214
302 240 185 180 190 196 204 207 208 210 211 209 209 209 208 208 207 206 206 205 203 203 201 198 196 197 198 199 200 201 200 200 201 202 202 202 203 205 207 209 209 209 209 209 209 210 211 211 210 208 207 207 209 210 210 211 212 213 212 212 212 213 214
295 269 228 206 198 197 205 210 207 208 209 209 211 211 210 209 208 206 206 205 202 202 202 199 198 198 198 200 202 200 197 196 198 198 199 200 201 202 205 207 208 208 208 208 208 209 210 210 210 209 208 207 207 209 211 212 214 216 218 217 214 211 213
280 268 267 268 230 192 192 205 207 206 207 207 208 209 210 210 209 208 208 206 204 203 201 198 198 198 199 201 201 197 193 193 195 195 196 198 200 200 202 205 206 207 207 207 208 209 209 209 209 210 210 208 208 210 212 213 216 219 221 222 220 214 211
269 260 268 285 285 228 194 205 208 208 212 212 208 208 209 209 208 208 209 208 206 203 200 199 200 200 201 201 198 192 191 191 192 193 194 196 198 199 200 202 205 206 205 206 207 207 208 209 209 210 211 211 210 211 213 215 218 221 223 224 224 220 215
273 274 282 293 296 278 243 235 223 214 217 218 213 212 211 209 208 210 210 209 206 203 201 201 202 201 200 199 194 191 190 190 190 192 194 195 196 198 198 200 204 206 206 206 207 207 208 208 209 210 211 212 212 213 215 216 219 223 224 225 226 225 221
282 288 291 292 291 286 270 248 238 232 230 228 223 219 215 212 212 212 209 206 203 202 202 203 202 200 198 196 194 192 190 191 193 194 194 194 193 196 199 202 205 207 208 208 208 209 209 209 210 211 212 213 214 215 217 218 220 224 226 226 226 226 224
279 281 283 284 283 281 268 242 245 249 244 240 235 227 220 217 215 212 208 204 202 201 201 201 201 201 198 195 195 194 192 194 196 194 194 194 193 196 201 204 206 208 209 211 211 211 212 212 211 211 212 215 217 218 221 222 222 223 226 226 226 227 225
270 272 276 281 284 285 278 264 263 264 258 250 242 232 225 220 215 211 208 204 202 201 200 199 199 201 200 197 195 194 194 194 194 193 194 194 194 198 203 205 208 208 209 211 213 214 215 215 215 215 215 218 220 222 226 227 225 224 225 226 226 225 223
268 273 278 283 289 291 284 274 269 266 259 247 241 237 229 220 213 210 208 204 202 201 199 198 198 200 201 199 197 195 193 192 192 192 194 194 196 201 205 207 209 209 207 209 212 213 214 215 217 218 218 218 219 221 225 227 226 224 225 225 224 221 219
262 274 284 290 293 290 284 278 269 262 256 248 243 239 229 219 210 207 207 204 202 200 198 199 200 199 200 199 197 194 190 189 190 191 192 195 198 202 205 206 208 207 206 208 211 213 214 214 215 217 217 217 218 219 223 226 227 226 225 224 223 219 215
279 290 297 298 300 300 297 293 282 268 255 246 241 233 222 214 209 207 206 204 202 200 201 204 204 201 199 198 194 188 185 187 191 193 194 197 201 204 205 205 205 205 205 209 212 215 216 216 217 219 219 220 222 223 225 229 231 229 226 224 223 219 213
310 314 310 308 319 323 312 299 285 269 252 238 233 227 214 206 206 207 204 201 202 205 206 208 207 202 198 194 189 186 188 192 195 196 199 201 203 204 204 203 203 204 204 208 213 216 218 218 220 222 222 221 223 225 227 230 233 234 229 226 225 220 212
314 317 324 337 348 342 321 306 298 289 286 285 242 226 211 201 203 204 199 196 203 210 210 207 204 198 193 190 189 191 195 199 200 201 203 204 202 202 204 204 205 206 206 210 213 215 218 219 221 226 227 224 224 227 229 230 232 235 233 229 226 222 215
328 335 345 355 359 352 338 331 332 328 339 9 307 218 205 198 198 198 196 196 203 210 210 204 197 192 188 189 192 196 198 200 201 202 204 205 202 202 204 207 209 210 211 214 216 218 221 223 225 230 233 233 232 232 233 232 231 233 233 231 228 225 219
338 338 345 356 0 358 354 354 0 359 2 13 23 52 172 188 191 193 196 197 199 203 203 200 196 192 189 192 195 197 198 198 199 200 203 205 204 204 206 210 212 214 214 216 221 226 229 229 229 231 234 236 236 235 235 234 232 232 233 232 230 228 225
332 324 335 355 359 357 359 13 24 18 16 18 22 34 62 146 172 174 172 163 162 180 186 188 192 192 193 195 196 196 196 197 199 202 205 206 205 204 209 211 212 214 214 215 220 227 231 231 230 230 232 235 236 236 235 235 233 233 233 231 231 230 228
332 319 334 5 12 12 21 36 36 30 30 29 28 33 44 69 113 121 101 83 100 154 175 182 187 191 196 198 196 196 196 197 201 204 204 204 203 204 207 209 210 212 213 214 220 225 229 232 231 230 231 235 237 237 237 236 234 234 234 234 232 231 229
342 5 10 17 20 26 41 52 47 42 39 37 36 40 46 56 73 78 66 57 86 148 175 188 190 192 197 198 196 197 198 199 202 205 205 205 206 207 208 210 211 212 212 216 222 225 228 232 234 232 232 235 238 239 239 238 236 234 234 235 233 230 229
24 40 37 29 27 36 55 62 56 49 46 45 45 48 53 59 65 67 67 65 73 143 172 184 190 192 195 198 199 200 201 203 205 207 207 207 209 211 213 213 215 216 216 219 224 225 227 232 234 234 234 237 240 241 242 241 238 235 233 231 229 226 225
30 43 48 45 39 43 60 68 66 63 61 57 54 53 56 60 60 60 64 66 65 96 134 157 175 182 183 188 194 198 201 205 208 210 210 209 211 216 219 219 221 224 226 228 230 230 230 232 233 235 239 242 244 246 245 244 242 239 235 230 224 219 219
28 37 43 46 45 46 55 66 72 74 71 65 61 60 59 60 60 61 63 67 75 81 83 96 122 139 149 163 175 180 185 194 200 206 212 214 215 220 225 228 232 236 236 235 235 237 241 245 247 247 250 253 254 253 249 247 247 246 242 237 228 220 217
33 46 52 59 61 57 56 61 71 76 74 69 67 67 66 64 61 59 58 61 74 88 89 91 98 108 120 134 149 158 158 167 185 199 212 219 220 221 225 229 237 253 265 259 248 246 253 262 267 269 274 279 277 269 261 257 257 257 252 244 237 230 224
49 56 60 66 72 70 66 64 65 69 70 70 72 73 70 65 59 54 51 51 60 80 95 102 106 108 112 114 117 127 134 138 153 170 189 213 224 228 233 236 241 259 276 279 274 271 273 276 278 277 278 280 278 274 269 265 263 264 262 255 244 235 228
65 64 66 69 73 77 75 69 65 67 70 74 77 78 75 67 58 50 46 48 56 68 80 92 102 106 108 110 111 115 120 123 129 140 149 167 187 182 185 232 236 240 284 297 294 295 295 296 294 287 280 278 277 275 272 269 265 264 263 261 253 240 230